Post results for free!

Create a contributor account.

GetMeRegistered.com
Rose Bowl Half Marathon logo

Rose Bowl Half Marathon

5K

January 22, 2012 in Pasadena, CA

Question About Results?

Events
Summary
Number of Finishers:309
Number of Females:165
Number of Males:144
Average Time:36:30
Results By
End Result logo
5K - Results 
 
top at
Male Participants
1. Brian Reese 19:14
2. Kevin Perez 19:29
3. Alex Perez 19:30
4. Nazario Miramontes 19:56
5. Martin Vega 20:08
Female Participants
1. Jamie Peng 20:07
2. Rosalinda Alcala 21:37
3. Kathleen Evans 22:14
4. Allegra Leedom 22:42
5. Amanda O'Toole 23:23
displaying: 1 - 40 of 40
number of records per page: [10] [25] [all]
   NO FN LN DIVISION OVERALL DIVPL SEXPL TIME PACE
printradius 1251 Diana Hernandez F2529 26 1/14 6/165 23:27 7:34
printradius 1545 Gonzalo Martinez M1417 27 5/17 21/144 23:37 7:37
printradius 1218 Kember Feuerzeig M0113 28 2/24 22/144 24:02 7:45
printradius 1205 Alain Dumont M4044 29 4/13 23/144 24:02 7:46
printradius 1217 Shawn Fenerin M1417 30 6/17 24/144 24:05 7:47
printradius 1165 Daniel Amador M2529 31 4/18 25/144 24:05 7:47
printradius 1473 Robert Scheff M2529 32 5/18 26/144 24:06 7:47
printradius 1154 Wes Harris M5054 33 4/5 27/144 24:07 7:47
printradius 1234 Katie Gallette F2529 34 2/14 7/165 24:24 7:53
printradius 1524 Nelson Herrera M1417 35 7/17 28/144 24:35 7:56
printradius 1302 Tom Mix M3539 36 2/9 29/144 24:39 7:57
printradius 1541 Francisco Mendoz M0113 37 3/24 30/144 24:42 7:58
printradius 1225 Andrew Frantilla M2529 38 6/18 31/144 24:43 7:59
printradius 1539 Joseph Aiday M0113 39 4/24 32/144 24:43 7:59
printradius 1521 David Halpern M4549 40 2/11 33/144 24:44 7:59
printradius 1175 Crystal Calayag F2529 41 3/14 8/165 24:44 7:59
printradius 1322 John Petrocik M3539 42 3/9 34/144 24:49 8:01
printradius 1501 Christoper Huynh M1417 43 8/17 35/144 24:54 8:02
printradius 1412 Kaylie Koneazny F0113 44 1/25 9/165 25:00 8:04
printradius 1161 Jose Ahumada M0113 45 5/24 36/144 25:01 8:05
printradius 1240 Basil Grillo M4044 46 5/13 37/144 25:07 8:06
printradius 1209 Dieo Ehrhard M3539 47 4/9 38/144 25:14 8:09
printradius 1259 Hinata Igawa F0113 48 2/25 10/165 25:17 8:10
printradius 1362 Chris Templin M1417 49 9/17 39/144 25:18 8:10
printradius 1389 Hailey Belcher F0113 50 3/25 11/165 25:19 8:10
printradius 1391 Kallie Rushing F0113 51 4/25 12/165 25:19 8:10
printradius 1390 Cissy Belcher F4549 52 2/9 13/165 25:23 8:12
printradius 1392 Teresa Rushing F4549 53 3/9 14/165 25:25 8:12
printradius 1177 Nicolas Carre M3034 54 2/11 40/144 25:27 8:13
printradius 1508 Max Guzman Jr M1417 55 10/17 41/144 25:29 8:14
printradius 1471 Candy Miller F4044 56 2/17 15/165 25:36 8:16
printradius 1188 Audrey Clark F3539 57 1/22 16/165 25:47 8:19
printradius 1173 Mark Brubaker CLY 40+ 58 2/9 42/144 25:50 8:20
printradius 1421 Gaurav Law M0113 59 6/24 43/144 25:52 8:21
printradius 1317 Joanna O'Toole F5054 60 1/5 17/165 25:55 8:22
printradius 1303 Peter Moberly M4549 61 3/11 44/144 25:55 8:22
printradius 1220 Steve Flagg M4549 62 4/11 45/144 26:04 8:25
printradius 1528 Anthony Hua M1417 63 11/17 46/144 26:26 8:32
printradius 1469 Ginger Reynolds F5559 64 1/6 18/165 26:28 8:33
   NO FN LN DIVISION OVERALL DIVPL SEXPL TIME PACE
printradius 1202 Erin Donovan F3539 65 2/22 19/165 26:31 8:34


share - click this icon in the results above to share via Facebook, Twitter, email, and more
print - click this icon in the results above for a printable page
radius - click this icon in the results above to show finishers before and after